| time (UTC) | temp F | wind direction | speed MPH | gust MPH | rain 1hr in | rain 24hr in | rain mn in | humidity % | barometer mb |
| 20260510004516 | 53 | 23 | 2.0 | 5.0 | 0.00 | 0.00 | 0.00 | 78 | 1015.2 |
| 20260510004229 | 53 | 36 | 2.0 | 4.0 | 0.00 | 0.00 | 0.00 | 77 | 1015.1 |
| 20260510004015 | 53 | 12 | 2.0 | 5.0 | 0.00 | 0.00 | 0.00 | 77 | 1015.4 |
| 20260510003726 | 53 | 11 | 2.0 | 5.0 | 0.00 | 0.00 | 0.00 | 77 | 1015.3 |
| 20260510003515 | 53 | 6 | 2.0 | 5.0 | 0.00 | 0.00 | 0.00 | 77 | 1015.3 |
| 20260510003237 | 53 | 345 | 1.0 | 5.0 | 0.00 | 0.00 | 0.00 | 77 | 1015.4 |
| 20260510003015 | 53 | 6 | 1.0 | 3.0 | 0.00 | 0.00 | 0.00 | 76 | 1015.3 |
| 20260510002738 | 54 | 28 | 1.0 | 4.0 | 0.00 | 0.00 | 0.00 | 76 | 1015.4 |
| 20260510002726 | 53 | 0 | 1.0 | 3.0 | 0.00 | 0.00 | 0.00 | 76 | 1015.4 |
| 20260510002515 | 54 | 358 | 1.0 | 3.0 | 0.00 | 0.00 | 0.00 | 76 | 1015.5 |
| 20260510002016 | 54 | 350 | 1.0 | 4.0 | 0.00 | 0.00 | 0.00 | 76 | 1015.5 |
| 20260510001724 | 54 | 350 | 1.0 | 4.0 | 0.00 | 0.00 | 0.00 | 75 | 1015.5 |
| 20260510001514 | 54 | 352 | 1.0 | 4.0 | 0.00 | 0.00 | 0.00 | 75 | 1015.4 |
| 20260510001258 | 54 | 355 | 1.0 | 4.0 | 0.00 | 0.00 | 0.00 | 75 | 1015.3 |
| 20260510001234 | 54 | 5 | 1.0 | 2.0 | 0.00 | 0.00 | 0.00 | 75 | 1015.4 |
| 20260510001015 | 54 | 353 | 1.0 | 3.0 | 0.00 | 0.00 | 0.00 | 75 | 1015.4 |
| 20260510000515 | 54 | 351 | 1.0 | 4.0 | 0.00 | 0.00 | 0.00 | 75 | 1015.3 |
| 20260510000256 | 54 | 326 | 1.0 | 3.0 | 0.00 | 0.00 | 0.00 | 74 | 1015.4 |
| 20260510000227 | 54 | 0 | 1.0 | 4.0 | 0.00 | 0.00 | 0.00 | 74 | 1015.4 |
| 20260510000016 | 54 | 358 | 1.0 | 4.0 | 0.00 | 0.00 | 0.00 | 74 | 1015.4 |
| 20260509235514 | 54 | 3 | 1.0 | 3.0 | 0.00 | 0.00 | 0.00 | 74 | 1015.4 |
| 20260509235226 | 54 | 9 | 1.0 | 3.0 | 0.00 | 0.00 | 0.00 | 74 | 1015.5 |
| 20260509235015 | 54 | 1 | 1.0 | 3.0 | 0.00 | 0.00 | 0.00 | 74 | 1015.6 |
| 20260509234723 | 55 | 5 | 1.0 | 3.0 | 0.00 | 0.00 | 0.00 | 74 | 1015.5 |
| 20260509234535 | 54 | 6 | 1.0 | 3.0 | 0.00 | 0.00 | 0.00 | 74 | 1015.5 |
| 20260509234452 | 55 | 17 | 1.0 | 4.0 | 0.00 | 0.00 | 0.00 | 73 | 1015.5 |
| 20260509234015 | 55 | 12 | 1.0 | 4.0 | 0.00 | 0.00 | 0.00 | 73 | 1015.6 |
| 20260509233823 | 55 | 10 | 1.0 | 4.0 | 0.00 | 0.00 | 0.00 | 73 | 1015.5 |
| 20260509233735 | 55 | 355 | 1.0 | 4.0 | 0.00 | 0.00 | 0.00 | 73 | 1015.5 |
| 20260509233514 | 55 | 16 | 1.0 | 4.0 | 0.00 | 0.00 | 0.00 | 73 | 1015.6 |
| 20260509233016 | 55 | 17 | 1.0 | 4.0 | 0.00 | 0.00 | 0.00 | 72 | 1015.6 |
| 20260509232708 | 55 | 14 | 1.0 | 3.0 | 0.00 | 0.00 | 0.00 | 72 | 1015.6 |
| 20260509232535 | 55 | 16 | 1.0 | 4.0 | 0.00 | 0.00 | 0.00 | 72 | 1015.5 |
| 20260509232213 | 55 | 10 | 1.0 | 4.0 | 0.00 | 0.00 | 0.00 | 72 | 1015.5 |
| 20260509232014 | 55 | 19 | 1.0 | 4.0 | 0.00 | 0.00 | 0.00 | 72 | 1015.5 |
| 20260509231722 | 55 | 24 | 1.0 | 4.0 | 0.00 | 0.00 | 0.00 | 71 | 1015.5 |
| 20260509231515 | 55 | 30 | 1.0 | 4.0 | 0.00 | 0.00 | 0.00 | 71 | 1015.6 |
| 20260509231212 | 55 | 40 | 0.0 | 2.0 | 0.00 | 0.00 | 0.00 | 71 | 1015.6 |
| 20260509231014 | 55 | 30 | 0.0 | 2.0 | 0.00 | 0.00 | 0.00 | 71 | 1015.7 |
| 20260509230724 | 55 | 40 | 0.0 | 2.0 | 0.00 | 0.00 | 0.00 | 70 | 1015.7 |
| 20260509230514 | 55 | 20 | 0.0 | 2.0 | 0.00 | 0.00 | 0.00 | 70 | 1015.7 |
| 20260509230212 | 56 | 340 | 0.0 | 2.0 | 0.00 | 0.00 | 0.00 | 70 | 1015.7 |
| 20260509230015 | 56 | 25 | 0.0 | 2.0 | 0.00 | 0.00 | 0.00 | 69 | 1015.7 |
| 20260509225705 | 56 | 25 | 1.0 | 2.0 | 0.00 | 0.00 | 0.00 | 69 | 1015.7 |
| 20260509225536 | 56 | 22 | 0.0 | 3.0 | 0.00 | 0.00 | 0.00 | 69 | 1015.8 |
| 20260509225212 | 56 | 19 | 1.0 | 3.0 | 0.00 | 0.00 | 0.00 | 69 | 1015.8 |
| 20260509225015 | 56 | 17 | 0.0 | 3.0 | 0.00 | 0.00 | 0.00 | 69 | 1015.8 |
| 20260509224710 | 56 | 18 | 0.0 | 3.0 | 0.00 | 0.00 | 0.00 | 69 | 1015.7 |
| 20260509224514 | 56 | 356 | 1.0 | 3.0 | 0.00 | 0.00 | 0.00 | 68 | 1015.8 |
| 20260509224215 | 56 | 344 | 1.0 | 3.0 | 0.00 | 0.00 | 0.00 | 68 | 1015.8 |
| 20260509224014 | 56 | 1 | 1.0 | 4.0 | 0.00 | 0.00 | 0.00 | 68 | 1015.7 |
| 20260509223716 | 56 | 355 | 1.0 | 4.0 | 0.00 | 0.00 | 0.00 | 68 | 1015.7 |
| 20260509223514 | 56 | 14 | 2.0 | 4.0 | 0.00 | 0.00 | 0.00 | 68 | 1015.7 |
| 20260509223223 | 56 | 15 | 2.0 | 4.0 | 0.00 | 0.00 | 0.00 | 67 | 1015.7 |
| 20260509223211 | 56 | 0 | 2.0 | 4.0 | 0.00 | 0.00 | 0.00 | 68 | 1015.7 |
| 20260509223036 | 56 | 20 | 2.0 | 4.0 | 0.00 | 0.00 | 0.00 | 67 | 1015.7 |
| 20260509222514 | 56 | 16 | 2.0 | 4.0 | 0.00 | 0.00 | 0.00 | 67 | 1015.7 |
| 20260509222257 | 57 | 22 | 1.0 | 3.0 | 0.00 | 0.00 | 0.00 | 66 | 1015.6 |
| 20260509222222 | 56 | 20 | 2.0 | 4.0 | 0.00 | 0.00 | 0.00 | 66 | 1015.7 |
| 20260509222015 | 56 | 13 | 1.0 | 3.0 | 0.00 | 0.00 | 0.00 | 66 | 1015.8 |
| 20260509221515 | 57 | 19 | 1.0 | 3.0 | 0.00 | 0.00 | 0.00 | 66 | 1015.7 |
| 20260509221211 | 57 | 29 | 1.0 | 3.0 | 0.00 | 0.00 | 0.00 | 65 | 1015.7 |
| 20260509221015 | 57 | 12 | 1.0 | 3.0 | 0.00 | 0.00 | 0.00 | 65 | 1015.7 |
| 20260509220738 | 57 | 21 | 1.0 | 3.0 | 0.00 | 0.00 | 0.00 | 64 | 1015.7 |
| 20260509220657 | 57 | 355 | 1.0 | 3.0 | 0.00 | 0.00 | 0.00 | 64 | 1015.6 |
| 20260509220515 | 57 | 359 | 1.0 | 3.0 | 0.00 | 0.00 | 0.00 | 64 | 1015.8 |
| 20260509220043 | 57 | 8 | 1.0 | 3.0 | 0.00 | 0.00 | 0.00 | 64 | 1015.7 |
| 20260509215715 | 57 | 0 | 1.0 | 3.0 | 0.00 | 0.00 | 0.00 | 64 | 1015.6 |
| 20260509215535 | 57 | 22 | 1.0 | 3.0 | 0.00 | 0.00 | 0.00 | 63 | 1015.7 |
| 20260509215205 | 58 | 38 | 1.0 | 3.0 | 0.00 | 0.00 | 0.00 | 63 | 1015.7 |
| 20260509215036 | 58 | 16 | 1.0 | 4.0 | 0.00 | 0.00 | 0.00 | 63 | 1015.8 |
| 20260509214713 | 58 | 24 | 1.0 | 4.0 | 0.00 | 0.00 | 0.00 | 63 | 1015.6 |
| 20260509214515 | 58 | 22 | 1.0 | 4.0 | 0.00 | 0.00 | 0.00 | 63 | 1015.8 |
| 20260509214207 | 58 | 21 | 2.0 | 4.0 | 0.00 | 0.00 | 0.00 | 63 | 1015.7 |
| 20260509214015 | 58 | 21 | 2.0 | 4.0 | 0.00 | 0.00 | 0.00 | 62 | 1015.8 |
| 20260509213700 | 58 | 11 | 2.0 | 4.0 | 0.00 | 0.00 | 0.00 | 62 | 1015.6 |
| 20260509213514 | 58 | 19 | 2.0 | 4.0 | 0.00 | 0.00 | 0.00 | 62 | 1015.7 |
| 20260509213156 | 58 | 12 | 2.0 | 4.0 | 0.00 | 0.00 | 0.00 | 62 | 1015.6 |
| 20260509213036 | 58 | 20 | 2.0 | 5.0 | 0.00 | 0.00 | 0.00 | 62 | 1015.7 |
| 20260509212741 | 58 | 19 | 1.0 | 5.0 | 0.00 | 0.00 | 0.00 | 61 | 1015.7 |
| 20260509212712 | 58 | 32 | 2.0 | 5.0 | 0.00 | 0.00 | 0.00 | 61 | 1015.6 |
| 20260509212514 | 58 | 22 | 2.0 | 5.0 | 0.00 | 0.00 | 0.00 | 61 | 1015.7 |
| 20260509212014 | 59 | 22 | 1.0 | 4.0 | 0.00 | 0.00 | 0.00 | 61 | 1015.8 |
| 20260509211654 | 59 | 19 | 1.0 | 2.0 | 0.00 | 0.00 | 0.00 | 60 | 1015.7 |
| 20260509211535 | 59 | 19 | 1.0 | 2.0 | 0.00 | 0.00 | 0.00 | 60 | 1015.8 |
| 20260509211149 | 59 | 19 | 1.0 | 3.0 | 0.00 | 0.00 | 0.00 | 60 | 1015.7 |
| 20260509211015 | 59 | 15 | 1.0 | 3.0 | 0.00 | 0.00 | 0.00 | 60 | 1015.8 |
| 20260509210643 | 59 | 22 | 1.0 | 3.0 | 0.00 | 0.00 | 0.00 | 60 | 1015.8 |
| 20260509210514 | 59 | 11 | 1.0 | 3.0 | 0.00 | 0.00 | 0.00 | 60 | 1015.8 |
| 20260509210148 | 59 | 9 | 1.0 | 5.0 | 0.00 | 0.00 | 0.00 | 59 | 1015.7 |
| 20260509210016 | 59 | 20 | 1.0 | 5.0 | 0.00 | 0.00 | 0.00 | 59 | 1015.8 |
| 20260509205640 | 59 | 13 | 1.0 | 5.0 | 0.00 | 0.00 | 0.00 | 59 | 1015.7 |
| 20260509205514 | 59 | 27 | 2.0 | 5.0 | 0.00 | 0.00 | 0.00 | 59 | 1015.8 |
| 20260509205218 | 60 | 32 | 2.0 | 4.0 | 0.00 | 0.00 | 0.00 | 59 | 1015.8 |
| 20260509205156 | 60 | 59 | 2.0 | 4.0 | 0.00 | 0.00 | 0.00 | 59 | 1015.7 |
| 20260509205015 | 60 | 26 | 2.0 | 4.0 | 0.00 | 0.00 | 0.00 | 59 | 1015.8 |
| 20260509204516 | 60 | 24 | 2.0 | 4.0 | 0.00 | 0.00 | 0.00 | 58 | 1015.8 |
| 20260509204142 | 60 | 26 | 2.0 | 5.0 | 0.00 | 0.00 | 0.00 | 58 | 1015.9 |
| 20260509204015 | 60 | 23 | 2.0 | 5.0 | 0.00 | 0.00 | 0.00 | 58 | 1015.8 |
| 20260509203640 | 60 | 25 | 2.0 | 5.0 | 0.00 | 0.00 | 0.00 | 57 | 1015.8 |
| 20260509203514 | 60 | 21 | 2.0 | 5.0 | 0.00 | 0.00 | 0.00 | 58 | 1015.8 |
| 20260509203237 | 60 | 15 | 2.0 | 5.0 | 0.00 | 0.00 | 0.00 | 57 | 1015.6 |
| 20260509203158 | 60 | 344 | 2.0 | 5.0 | 0.00 | 0.00 | 0.00 | 57 | 1015.7 |
| 20260509203015 | 60 | 20 | 2.0 | 5.0 | 0.00 | 0.00 | 0.00 | 57 | 1015.8 |
| 20260509202534 | 60 | 21 | 1.0 | 5.0 | 0.00 | 0.00 | 0.00 | 57 | 1015.7 |
| 20260509202131 | 60 | 23 | 1.0 | 4.0 | 0.00 | 0.00 | 0.00 | 57 | 1015.6 |
| 20260509202016 | 61 | 21 | 1.0 | 4.0 | 0.00 | 0.00 | 0.00 | 57 | 1015.7 |
| 20260509201735 | 62 | 19 | 2.0 | 5.0 | 0.00 | 0.00 | 0.00 | 55 | 1015.8 |
| 20260509201635 | 61 | 19 | 2.0 | 5.0 | 0.00 | 0.00 | 0.00 | 56 | 1015.6 |
| 20260509201514 | 61 | 27 | 2.0 | 5.0 | 0.00 | 0.00 | 0.00 | 56 | 1015.7 |
| 20260509201436 | 62 | 19 | 2.0 | 5.0 | 0.00 | 0.00 | 0.00 | 55 | 1015.8 |
| 20260509201232 | 61 | 33 | 2.0 | 5.0 | 0.00 | 0.00 | 0.00 | 56 | 1015.7 |
| 20260509201014 | 61 | 30 | 2.0 | 5.0 | 0.00 | 0.00 | 0.00 | 55 | 1015.6 |
| 20260509200647 | 61 | 28 | 2.0 | 5.0 | 0.00 | 0.00 | 0.00 | 56 | 1015.6 |
| 20260509200516 | 61 | 27 | 2.0 | 4.0 | 0.00 | 0.00 | 0.00 | 55 | 1015.8 |
| 20260509200144 | 61 | 33 | 2.0 | 5.0 | 0.00 | 0.00 | 0.00 | 55 | 1015.8 |
| 20260509200015 | 61 | 23 | 2.0 | 5.0 | 0.00 | 0.00 | 0.00 | 55 | 1015.8 |
| 20260509195536 | 62 | 25 | 2.0 | 5.0 | 0.00 | 0.00 | 0.00 | 55 | 1015.8 |
| 20260509195133 | 62 | 26 | 1.0 | 3.0 | 0.00 | 0.00 | 0.00 | 55 | 1015.8 |
| 20260509195014 | 62 | 31 | 1.0 | 3.0 | 0.00 | 0.00 | 0.00 | 55 | 1015.8 |
| 20260509194624 | 62 | 26 | 1.0 | 3.0 | 0.00 | 0.00 | 0.00 | 55 | 1015.8 |
| 20260509194514 | 62 | 27 | 1.0 | 4.0 | 0.00 | 0.00 | 0.00 | 55 | 1015.8 |
| 20260509194124 | 62 | 39 | 2.0 | 4.0 | 0.00 | 0.00 | 0.00 | 54 | 1015.8 |
| 20260509194014 | 62 | 22 | 2.0 | 4.0 | 0.00 | 0.00 | 0.00 | 54 | 1015.8 |
| 20260509193623 | 62 | 13 | 2.0 | 4.0 | 0.00 | 0.00 | 0.00 | 54 | 1015.7 |
| 20260509193515 | 62 | 21 | 2.0 | 4.0 | 0.00 | 0.00 | 0.00 | 54 | 1015.8 |
| 20260509193117 | 63 | 0 | 2.0 | 4.0 | 0.00 | 0.00 | 0.00 | 53 | 1015.7 |
| 20260509193014 | 63 | 21 | 2.0 | 4.0 | 0.00 | 0.00 | 0.00 | 53 | 1015.8 |
| 20260509192616 | 63 | 18 | 2.0 | 6.0 | 0.00 | 0.00 | 0.00 | 53 | 1015.8 |
| 20260509192514 | 63 | 21 | 2.0 | 6.0 | 0.00 | 0.00 | 0.00 | 53 | 1015.8 |
| 20260509192128 | 63 | 43 | 2.0 | 6.0 | 0.00 | 0.00 | 0.00 | 53 | 1015.7 |
| 20260509192014 | 63 | 18 | 2.0 | 6.0 | 0.00 | 0.00 | 0.00 | 52 | 1015.8 |
| 20260509191616 | 63 | 15 | 2.0 | 6.0 | 0.00 | 0.00 | 0.00 | 52 | 1015.8 |
| 20260509191515 | 63 | 17 | 2.0 | 6.0 | 0.00 | 0.00 | 0.00 | 52 | 1015.7 |
| 20260509191119 | 64 | 14 | 3.0 | 6.0 | 0.00 | 0.00 | 0.00 | 51 | 1015.7 |
| 20260509191014 | 64 | 16 | 3.0 | 6.0 | 0.00 | 0.00 | 0.00 | 51 | 1015.8 |
| 20260509190618 | 64 | 10 | 3.0 | 6.0 | 0.00 | 0.00 | 0.00 | 51 | 1015.7 |
| 20260509190515 | 64 | 11 | 3.0 | 6.0 | 0.00 | 0.00 | 0.00 | 51 | 1015.8 |
| 20260509190112 | 64 | 23 | 3.0 | 6.0 | 0.00 | 0.00 | 0.00 | 50 | 1015.6 |
| 20260509190015 | 64 | 12 | 2.0 | 6.0 | 0.00 | 0.00 | 0.00 | 50 | 1015.7 |
| 20260509185615 | 64 | 11 | 2.0 | 6.0 | 0.00 | 0.00 | 0.00 | 50 | 1015.6 |
| 20260509185535 | 64 | 16 | 2.0 | 6.0 | 0.00 | 0.00 | 0.00 | 50 | 1015.6 |
| 20260509185114 | 65 | 24 | 2.0 | 5.0 | 0.00 | 0.00 | 0.00 | 50 | 1015.6 |
| 20260509185036 | 64 | 17 | 2.0 | 5.0 | 0.00 | 0.00 | 0.00 | 49 | 1015.6 |
| 20260509184617 | 65 | 19 | 2.0 | 5.0 | 0.00 | 0.00 | 0.00 | 49 | 1015.6 |
| 20260509184514 | 65 | 11 | 2.0 | 5.0 | 0.00 | 0.00 | 0.00 | 49 | 1015.6 |
| 20260509184111 | 65 | 347 | 2.0 | 5.0 | 0.00 | 0.00 | 0.00 | 49 | 1015.5 |
| 20260509184014 | 65 | 15 | 2.0 | 5.0 | 0.00 | 0.00 | 0.00 | 49 | 1015.5 |
| 20260509183618 | 65 | 16 | 3.0 | 6.0 | 0.00 | 0.00 | 0.00 | 49 | 1015.5 |
| 20260509183514 | 65 | 14 | 3.0 | 6.0 | 0.00 | 0.00 | 0.00 | 48 | 1015.5 |
| 20260509183106 | 65 | 22 | 3.0 | 6.0 | 0.00 | 0.00 | 0.00 | 48 | 1015.4 |
| 20260509183017 | 65 | 12 | 3.0 | 6.0 | 0.00 | 0.00 | 0.00 | 48 | 1015.4 |
| 20260509182615 | 65 | 13 | 3.0 | 7.0 | 0.00 | 0.00 | 0.00 | 48 | 1015.3 |
| 20260509182513 | 66 | 18 | 4.0 | 9.0 | 0.00 | 0.00 | 0.00 | 48 | 1015.4 |
| 20260509182103 | 66 | 346 | 4.0 | 9.0 | 0.00 | 0.00 | 0.00 | 47 | 1015.3 |
| 20260509182015 | 66 | 17 | 4.0 | 9.0 | 0.00 | 0.00 | 0.00 | 47 | 1015.4 |
| 20260509181613 | 66 | 0 | 4.0 | 11.0 | 0.00 | 0.00 | 0.00 | 47 | 1015.3 |
| 20260509181515 | 66 | 15 | 5.0 | 11.0 | 0.00 | 0.00 | 0.00 | 47 | 1015.3 |
| 20260509181059 | 66 | 355 | 5.0 | 11.0 | 0.00 | 0.00 | 0.00 | 47 | 1015.2 |
| 20260509181014 | 66 | 14 | 5.0 | 11.0 | 0.00 | 0.00 | 0.00 | 47 | 1015.3 |
| 20260509180608 | 67 | 19 | 4.0 | 12.0 | 0.00 | 0.00 | 0.00 | 47 | 1015.1 |
| 20260509180514 | 67 | 13 | 4.0 | 12.0 | 0.00 | 0.00 | 0.00 | 47 | 1015.1 |
| 20260509180106 | 67 | 5 | 5.0 | 12.0 | 0.00 | 0.00 | 0.00 | 46 | 1015.0 |
| 20260509180036 | 67 | 16 | 5.0 | 12.0 | 0.00 | 0.00 | 0.00 | 46 | 1015.0 |
| 20260509175608 | 67 | 31 | 4.0 | 8.0 | 0.00 | 0.00 | 0.00 | 45 | 1015.0 |
| 20260509175514 | 67 | 20 | 3.0 | 8.0 | 0.00 | 0.00 | 0.00 | 44 | 1015.0 |
| 20260509175058 | 67 | 13 | 3.0 | 6.0 | 0.00 | 0.00 | 0.00 | 43 | 1015.0 |
| 20260509175014 | 67 | 12 | 2.0 | 6.0 | 0.00 | 0.00 | 0.00 | 44 | 1015.0 |
| 20260509174841 | 68 | 30 | 3.0 | 5.0 | 0.00 | 0.00 | 0.00 | 43 | 1015.0 |
| 20260509174655 | 68 | 282 | 3.0 | 7.0 | 0.00 | 0.00 | 0.00 | 43 | 1015.1 |
| 20260509174514 | 68 | 7 | 3.0 | 7.0 | 0.00 | 0.00 | 0.00 | 43 | 1015.1 |
| 20260509174014 | 68 | 11 | 3.0 | 7.0 | 0.00 | 0.00 | 0.00 | 43 | 1015.1 |
| 20260509173554 | 68 | 19 | 4.0 | 7.0 | 0.00 | 0.00 | 0.00 | 44 | 1015.2 |
| 20260509173535 | 68 | 12 | 4.0 | 7.0 | 0.00 | 0.00 | 0.00 | 43 | 1015.2 |
| 20260509173055 | 68 | 17 | 4.0 | 9.0 | 0.00 | 0.00 | 0.00 | 43 | 1015.2 |
| 20260509173014 | 68 | 9 | 4.0 | 9.0 | 0.00 | 0.00 | 0.00 | 43 | 1015.2 |
| 20260509172554 | 68 | 30 | 3.0 | 9.0 | 0.00 | 0.00 | 0.00 | 43 | 1015.2 |
| 20260509172514 | 68 | 12 | 3.0 | 8.0 | 0.00 | 0.00 | 0.00 | 43 | 1015.2 |
| 20260509172056 | 68 | 22 | 3.0 | 8.0 | 0.00 | 0.00 | 0.00 | 43 | 1015.2 |
| 20260509172037 | 68 | 22 | 3.0 | 8.0 | 0.00 | 0.00 | 0.00 | 43 | 1015.2 |
| 20260509171556 | 69 | 29 | 4.0 | 8.0 | 0.00 | 0.00 | 0.00 | 42 | 1015.2 |
| 20260509171514 | 68 | 23 | 3.0 | 8.0 | 0.00 | 0.00 | 0.00 | 42 | 1015.3 |
| 20260509171043 | 69 | 26 | 3.0 | 8.0 | 0.00 | 0.00 | 0.00 | 42 | 1015.3 |
| 20260509171014 | 69 | 21 | 3.0 | 8.0 | 0.00 | 0.00 | 0.00 | 42 | 1015.3 |
| 20260509170548 | 69 | 5 | 3.0 | 7.0 | 0.00 | 0.00 | 0.00 | 42 | 1015.2 |
| 20260509170514 | 69 | 18 | 3.0 | 7.0 | 0.00 | 0.00 | 0.00 | 42 | 1015.3 |
| 20260509170431 | 69 | 0 | 3.0 | 10.0 | 0.00 | 0.00 | 0.00 | 43 | 1015.4 |
| 20260509170155 | 69 | 347 | 3.0 | 10.0 | 0.00 | 0.00 | 0.00 | 43 | 1015.2 |
| 20260509170014 | 69 | 17 | 3.0 | 10.0 | 0.00 | 0.00 | 0.00 | 43 | 1015.3 |
| 20260509165604 | 69 | 26 | 4.0 | 10.0 | 0.00 | 0.00 | 0.00 | 42 | 1015.2 |
| 20260509165514 | 69 | 13 | 4.0 | 10.0 | 0.00 | 0.00 | 0.00 | 42 | 1015.2 |
| 20260509165014 | 69 | 11 | 3.0 | 10.0 | 0.00 | 0.00 | 0.00 | 43 | 1015.4 |
| 20260509164758 | 69 | 36 | 3.0 | 8.0 | 0.00 | 0.00 | 0.00 | 42 | 1015.3 |
| 20260509164737 | 69 | 347 | 4.0 | 9.0 | 0.00 | 0.00 | 0.00 | 42 | 1015.3 |
| 20260509164623 | 69 | 349 | 3.0 | 10.0 | 0.00 | 0.00 | 0.00 | 43 | 1015.3 |
| 20260509164516 | 69 | 10 | 3.0 | 10.0 | 0.00 | 0.00 | 0.00 | 43 | 1015.3 |
| 20260509164015 | 70 | 348 | 3.0 | 8.0 | 0.00 | 0.00 | 0.00 | 42 | 1015.3 |
| 20260509163514 | 70 | 2 | 4.0 | 9.0 | 0.00 | 0.00 | 0.00 | 42 | 1015.3 |
| 20260509163117 | 70 | 355 | 4.0 | 9.0 | 0.00 | 0.00 | 0.00 | 42 | 1015.3 |
| 20260509163055 | 69 | 326 | 4.0 | 9.0 | 0.00 | 0.00 | 0.00 | 41 | 1015.3 |
| 20260509163013 | 70 | 14 | 4.0 | 9.0 | 0.00 | 0.00 | 0.00 | 41 | 1015.3 |
| 20260509162514 | 70 | 6 | 3.0 | 9.0 | 0.00 | 0.00 | 0.00 | 42 | 1015.4 |
| 20260509162046 | 70 | 19 | 3.0 | 9.0 | 0.00 | 0.00 | 0.00 | 42 | 1015.3 |
| 20260509162015 | 70 | 2 | 3.0 | 9.0 | 0.00 | 0.00 | 0.00 | 42 | 1015.3 |
| 20260509161543 | 69 | 0 | 2.0 | 7.0 | 0.00 | 0.00 | 0.00 | 42 | 1015.2 |
| 20260509161513 | 69 | 16 | 3.0 | 7.0 | 0.00 | 0.00 | 0.00 | 41 | 1015.2 |
| 20260509161046 | 70 | 334 | 3.0 | 7.0 | 0.00 | 0.00 | 0.00 | 41 | 1015.2 |
| 20260509161014 | 70 | 23 | 3.0 | 7.0 | 0.00 | 0.00 | 0.00 | 41 | 1015.2 |
| 20260509160539 | 70 | 19 | 4.0 | 9.0 | 0.00 | 0.00 | 0.00 | 41 | 1015.3 |
| 20260509160513 | 70 | 20 | 4.0 | 9.0 | 0.00 | 0.00 | 0.00 | 41 | 1015.3 |
| 20260509160014 | 70 | 18 | 3.0 | 9.0 | 0.00 | 0.00 | 0.00 | 40 | 1015.3 |
| 20260509155538 | 70 | 340 | 2.0 | 8.0 | 0.00 | 0.00 | 0.00 | 41 | 1015.3 |
| 20260509155535 | 70 | 22 | 2.0 | 8.0 | 0.00 | 0.00 | 0.00 | 41 | 1015.3 |
| 20260509155228 | 70 | 14 | 2.0 | 7.0 | 0.00 | 0.00 | 0.00 | 42 | 1015.3 |
| 20260509155150 | 70 | 55 | 3.0 | 8.0 | 0.00 | 0.00 | 0.00 | 41 | 1015.4 |
| 20260509155042 | 69 | 12 | 2.0 | 6.0 | 0.00 | 0.00 | 0.00 | 41 | 1015.3 |
| 20260509155015 | 69 | 50 | 2.0 | 6.0 | 0.00 | 0.00 | 0.00 | 41 | 1015.3 |
| 20260509154946 | 69 | 20 | 2.0 | 7.0 | 0.00 | 0.00 | 0.00 | 42 | 1015.2 |
| 20260509154734 | 69 | 69 | 3.0 | 6.0 | 0.00 | 0.00 | 0.00 | 41 | 1015.3 |
| 20260509154514 | 69 | 37 | 3.0 | 6.0 | 0.00 | 0.00 | 0.00 | 41 | 1015.3 |
| 20260509154231 | 69 | 49 | 4.0 | 9.0 | 0.00 | 0.00 | 0.00 | 41 | 1015.2 |
| 20260509154014 | 69 | 25 | 4.0 | 9.0 | 0.00 | 0.00 | 0.00 | 41 | 1015.3 |
| 20260509153648 | 69 | 22 | 4.0 | 9.0 | 0.00 | 0.00 | 0.00 | 42 | 1015.2 |
| 20260509153514 | 70 | 22 | 4.0 | 9.0 | 0.00 | 0.00 | 0.00 | 42 | 1015.3 |
| 20260509153015 | 69 | 25 | 2.0 | 7.0 | 0.00 | 0.00 | 0.00 | 42 | 1015.3 |
| 20260509152514 | 70 | 22 | 2.0 | 7.0 | 0.00 | 0.00 | 0.00 | 42 | 1015.3 |
| 20260509152016 | 70 | 32 | 3.0 | 8.0 | 0.00 | 0.00 | 0.00 | 41 | 1015.4 |
| 20260509151836 | 70 | 26 | 2.0 | 7.0 | 0.00 | 0.00 | 0.00 | 41 | 1015.5 |
| 20260509151814 | 70 | 17 | 2.0 | 7.0 | 0.00 | 0.00 | 0.00 | 40 | 1015.5 |
| 20260509151759 | 70 | 9 | 2.0 | 6.0 | 0.00 | 0.00 | 0.00 | 41 | 1015.6 |
| 20260509151605 | 71 | 42 | 3.0 | 8.0 | 0.00 | 0.00 | 0.00 | 40 | 1015.4 |
| 20260509151513 | 71 | 31 | 3.0 | 8.0 | 0.00 | 0.00 | 0.00 | 40 | 1015.4 |
| 20260509151259 | 71 | 22 | 3.0 | 7.0 | 0.00 | 0.00 | 0.00 | 41 | 1015.4 |
| 20260509151036 | 71 | 23 | 3.0 | 6.0 | 0.00 | 0.00 | 0.00 | 41 | 1015.4 |
| 20260509150513 | 70 | 38 | 3.0 | 7.0 | 0.00 | 0.00 | 0.00 | 40 | 1015.6 |
| 20260509150015 | 70 | 54 | 2.0 | 6.0 | 0.00 | 0.00 | 0.00 | 41 | 1015.6 |
| 20260509145618 | 70 | 18 | 2.0 | 7.0 | 0.00 | 0.00 | 0.00 | 41 | 1015.6 |
| 20260509145514 | 70 | 52 | 2.0 | 7.0 | 0.00 | 0.00 | 0.00 | 41 | 1015.7 |
| 20260509145014 | 70 | 34 | 2.0 | 7.0 | 0.00 | 0.00 | 0.00 | 41 | 1015.5 |
| 20260509144629 | 69 | 15 | 2.0 | 5.0 | 0.00 | 0.00 | 0.00 | 42 | 1015.6 |
| 20260509144545 | 69 | 36 | 2.0 | 5.0 | 0.00 | 0.00 | 0.00 | 43 | 1015.5 |
| 20260509144514 | 69 | 27 | 1.0 | 5.0 | 0.00 | 0.00 | 0.00 | 43 | 1015.6 |
| 20260509144035 | 69 | 35 | 2.0 | 5.0 | 0.00 | 0.00 | 0.00 | 42 | 1015.7 |
| 20260509143535 | 70 | 19 | 3.0 | 9.0 | 0.00 | 0.00 | 0.00 | 42 | 1015.6 |
| 20260509143517 | 70 | 18 | 3.0 | 9.0 | 0.00 | 0.00 | 0.00 | 42 | 1015.6 |
| 20260509143157 | 70 | 25 | 3.0 | 10.0 | 0.00 | 0.00 | 0.00 | 41 | 1015.7 |
| 20260509143103 | 70 | 5 | 3.0 | 10.0 | 0.00 | 0.00 | 0.00 | 42 | 1015.7 |
| 20260509143015 | 70 | 17 | 3.0 | 10.0 | 0.00 | 0.00 | 0.00 | 42 | 1015.8 |
| 20260509142514 | 70 | 42 | 2.0 | 10.0 | 0.00 | 0.00 | 0.00 | 41 | 1015.7 |
| 20260509142034 | 71 | 127 | 2.0 | 6.0 | 0.00 | 0.00 | 0.00 | 41 | 1015.7 |
| 20260509142014 | 71 | 52 | 2.0 | 6.0 | 0.00 | 0.00 | 0.00 | 41 | 1015.8 |
| 20260509141536 | 71 | 5 | 2.0 | 5.0 | 0.00 | 0.00 | 0.00 | 40 | 1015.7 |
| 20260509141514 | 72 | 33 | 2.0 | 9.0 | 0.00 | 0.00 | 0.00 | 40 | 1015.8 |
| 20260509141040 | 72 | 51 | 2.0 | 4.0 | 0.00 | 0.00 | 0.00 | 40 | 1015.8 |
| 20260509141014 | 72 | 348 | 2.0 | 9.0 | 0.00 | 0.00 | 0.00 | 40 | 1015.9 |
| 20260509140553 | 70 | 355 | 4.0 | 10.0 | 0.00 | 0.00 | 0.00 | 42 | 1015.9 |
| 20260509140538 | 72 | 22 | 3.0 | 9.0 | 0.00 | 0.00 | 0.00 | 40 | 1015.8 |
| 20260509140516 | 72 | 12 | 3.0 | 10.0 | 0.00 | 0.00 | 0.00 | 40 | 1015.8 |
| 20260509140035 | 70 | 19 | 4.0 | 10.0 | 0.00 | 0.00 | 0.00 | 42 | 1016.0 |
| 20260509135907 | 71 | 350 | 3.0 | 9.0 | 0.00 | 0.00 | 0.00 | 40 | 1016.0 |
| 20260509135704 | 70 | 23 | 3.0 | 10.0 | 0.00 | 0.00 | 0.00 | 41 | 1015.8 |
| 20260509135514 | 70 | 29 | 2.0 | 10.0 | 0.00 | 0.00 | 0.00 | 41 | 1015.9 |
| 20260509135049 | 71 | 350 | 3.0 | 9.0 | 0.00 | 0.00 | 0.00 | 40 | 1016.0 |
| 20260509135014 | 71 | 30 | 3.0 | 9.0 | 0.00 | 0.00 | 0.00 | 40 | 1016.0 |
| 20260509134534 | 71 | 24 | 4.0 | 9.0 | 0.00 | 0.00 | 0.00 | 41 | 1016.1 |
| 20260509134328 | 71 | 63 | 3.0 | 9.0 | 0.00 | 0.00 | 0.00 | 41 | 1016.0 |
| 20260509134035 | 72 | 22 | 3.0 | 9.0 | 0.00 | 0.00 | 0.00 | 41 | 1016.1 |
| 20260509133554 | 70 | 330 | 2.0 | 6.0 | 0.00 | 0.00 | 0.00 | 42 | 1016.1 |
| 20260509133536 | 70 | 347 | 2.0 | 6.0 | 0.00 | 0.00 | 0.00 | 42 | 1016.1 |
| 20260509133359 | 71 | 339 | 2.0 | 5.0 | 0.00 | 0.00 | 0.00 | 39 | 1016.2 |
| 20260509133255 | 71 | 278 | 3.0 | 8.0 | 0.00 | 0.00 | 0.00 | 41 | 1016.2 |
| 20260509133123 | 71 | 339 | 2.0 | 5.0 | 0.00 | 0.00 | 0.00 | 39 | 1016.2 |
| 20260509133015 | 71 | 340 | 2.0 | 5.0 | 0.00 | 0.00 | 0.00 | 39 | 1016.3 |
| 20260509132535 | 71 | 353 | 3.0 | 8.0 | 0.00 | 0.00 | 0.00 | 41 | 1016.2 |
| 20260509132035 | 72 | 3 | 3.0 | 10.0 | 0.00 | 0.00 | 0.00 | 41 | 1016.3 |
| 20260509131530 | 71 | 0 | 3.0 | 10.0 | 0.00 | 0.00 | 0.00 | 42 | 1016.3 |
| 20260509131513 | 71 | 7 | 3.0 | 10.0 | 0.00 | 0.00 | 0.00 | 41 | 1016.4 |
| 20260509131049 | 71 | 18 | 4.0 | 10.0 | 0.00 | 0.00 | 0.00 | 42 | 1016.5 |
| 20260509131034 | 71 | 10 | 4.0 | 9.0 | 0.00 | 0.00 | 0.00 | 42 | 1016.5 |
| 20260509130525 | 71 | 333 | 4.0 | 10.0 | 0.00 | 0.00 | 0.00 | 42 | 1016.4 |
| 20260509130513 | 71 | 7 | 4.0 | 10.0 | 0.00 | 0.00 | 0.00 | 42 | 1016.5 |
| 20260509130354 | 72 | 34 | 3.0 | 7.0 | 0.00 | 0.00 | 0.00 | 41 | 1016.5 |
| 20260509130127 | 71 | 30 | 4.0 | 9.0 | 0.00 | 0.00 | 0.00 | 42 | 1016.5 |
| 20260509130035 | 71 | 15 | 4.0 | 10.0 | 0.00 | 0.00 | 0.00 | 42 | 1016.5 |
| 20260509125534 | 71 | 22 | 3.0 | 7.0 | 0.00 | 0.00 | 0.00 | 41 | 1016.5 |
| 20260509125513 | 71 | 20 | 3.0 | 7.0 | 0.00 | 0.00 | 0.00 | 41 | 1016.6 |
| 20260509125036 | 72 | 358 | 3.0 | 7.0 | 0.00 | 0.00 | 0.00 | 41 | 1016.6 |
| 20260509124528 | 72 | 10 | 2.0 | 5.0 | 0.00 | 0.00 | 0.00 | 42 | 1016.5 |
| 20260509124513 | 72 | 354 | 2.0 | 5.0 | 0.00 | 0.00 | 0.00 | 42 | 1016.6 |
| 20260509124048 | 72 | 61 | 3.0 | 8.0 | 0.00 | 0.00 | 0.00 | 40 | 1016.5 |
| 20260509124035 | 72 | 3 | 2.0 | 8.0 | 0.00 | 0.00 | 0.00 | 40 | 1016.6 |
| 20260509123542 | 71 | 16 | 2.0 | 8.0 | 0.00 | 0.00 | 0.00 | 43 | 1016.6 |
| 20260509123535 | 71 | 12 | 2.0 | 8.0 | 0.00 | 0.00 | 0.00 | 43 | 1016.6 |
| 20260509123034 | 71 | 30 | 2.0 | 4.0 | 0.00 | 0.00 | 0.00 | 43 | 1016.7 |
| 20260509123014 | 71 | 41 | 2.0 | 4.0 | 0.00 | 0.00 | 0.00 | 43 | 1016.7 |
| 20260509122527 | 70 | 187 | 3.0 | 8.0 | 0.00 | 0.00 | 0.00 | 44 | 1016.7 |
| 20260509122513 | 70 | 32 | 3.0 | 8.0 | 0.00 | 0.00 | 0.00 | 44 | 1016.7 |
| 20260509122014 | 69 | 59 | 5.0 | 10.0 | 0.00 | 0.00 | 0.00 | 45 | 1016.8 |
| 20260509121547 | 71 | 38 | 3.0 | 12.0 | 0.00 | 0.00 | 0.00 | 44 | 1016.8 |
| 20260509121521 | 70 | 34 | 5.0 | 12.0 | 0.00 | 0.00 | 0.00 | 44 | 1016.8 |
| 20260509121513 | 70 | 25 | 5.0 | 12.0 | 0.00 | 0.00 | 0.00 | 44 | 1016.8 |
| 20260509121014 | 71 | 27 | 3.0 | 12.0 | 0.00 | 0.00 | 0.00 | 44 | 1016.8 |
| 20260509120524 | 70 | 19 | 2.0 | 8.0 | 0.00 | 0.00 | 0.00 | 43 | 1016.8 |
| 20260509120514 | 70 | 16 | 2.0 | 8.0 | 0.00 | 0.00 | 0.00 | 43 | 1016.8 |
| 20260509120049 | 70 | 57 | 2.0 | 4.0 | 0.00 | 0.00 | 0.00 | 42 | 1016.8 |
| 20260509120014 | 70 | 324 | 2.0 | 4.0 | 0.00 | 0.00 | 0.00 | 42 | 1016.9 |
| 20260509115540 | 69 | 355 | 2.0 | 5.0 | 0.00 | 0.00 | 0.00 | 41 | 1016.8 |
| 20260509115513 | 69 | 309 | 2.0 | 5.0 | 0.00 | 0.00 | 0.00 | 41 | 1016.9 |
| 20260509115025 | 69 | 228 | 2.0 | 5.0 | 0.00 | 0.00 | 0.00 | 43 | 1017.0 |
| 20260509115014 | 69 | 344 | 2.0 | 5.0 | 0.00 | 0.00 | 0.00 | 43 | 1017.0 |
| 20260509114520 | 68 | 169 | 2.0 | 6.0 | 0.00 | 0.00 | 0.00 | 42 | 1017.0 |
| 20260509114513 | 68 | 359 | 2.0 | 6.0 | 0.00 | 0.00 | 0.00 | 42 | 1017.1 |
| 20260509114103 | 69 | 34 | 3.0 | 8.0 | 0.00 | 0.00 | 0.00 | 44 | 1017.1 |
| 20260509114014 | 70 | 8 | 3.0 | 8.0 | 0.00 | 0.00 | 0.00 | 44 | 1017.1 |
| 20260509113517 | 69 | 9 | 2.0 | 8.0 | 0.00 | 0.00 | 0.00 | 46 | 1017.2 |
| 20260509113514 | 69 | 23 | 2.0 | 8.0 | 0.00 | 0.00 | 0.00 | 46 | 1017.2 |
| 20260509113026 | 69 | 5 | 4.0 | 11.0 | 0.00 | 0.00 | 0.00 | 48 | 1017.3 |
| 20260509113014 | 69 | 25 | 4.0 | 11.0 | 0.00 | 0.00 | 0.00 | 48 | 1017.4 |
| 20260509112515 | 69 | 22 | 4.0 | 11.0 | 0.00 | 0.00 | 0.00 | 45 | 1017.4 |
| 20260509112230 | 69 | 64 | 5.0 | 10.0 | 0.00 | 0.00 | 0.00 | 47 | 1017.3 |
| 20260509112049 | 69 | 5 | 3.0 | 9.0 | 0.00 | 0.00 | 0.00 | 49 | 1017.4 |
| 20260509112013 | 69 | 30 | 3.0 | 9.0 | 0.00 | 0.00 | 0.00 | 49 | 1017.4 |
| 20260509111513 | 69 | 36 | 5.0 | 10.0 | 0.00 | 0.00 | 0.00 | 47 | 1017.3 |
| 20260509111317 | 69 | 93 | 3.0 | 10.0 | 0.00 | 0.00 | 0.00 | 47 | 1017.4 |
| 20260509111025 | 69 | 93 | 3.0 | 10.0 | 0.00 | 0.00 | 0.00 | 47 | 1017.4 |
| 20260509111014 | 68 | 32 | 3.0 | 10.0 | 0.00 | 0.00 | 0.00 | 47 | 1017.4 |
| 20260509110520 | 68 | 32 | 1.0 | 10.0 | 0.00 | 0.00 | 0.00 | 48 | 1017.5 |
| 20260509110513 | 68 | 47 | 1.0 | 10.0 | 0.00 | 0.00 | 0.00 | 48 | 1017.5 |
| 20260509110014 | 68 | 143 | 1.0 | 6.0 | 0.00 | 0.00 | 0.00 | 49 | 1017.6 |
| 20260509110002 | 68 | 25 | 1.0 | 6.0 | 0.00 | 0.00 | 0.00 | 49 | 1017.5 |
| 20260509105513 | 66 | 168 | 1.0 | 2.0 | 0.00 | 0.00 | 0.00 | 51 | 1017.7 |
| 20260509105502 | 66 | 180 | 1.0 | 2.0 | 0.00 | 0.00 | 0.00 | 52 | 1017.6 |
| 20260509105014 | 66 | 59 | 1.0 | 5.0 | 0.00 | 0.00 | 0.00 | 50 | 1017.8 |
| 20260509104958 | 66 | 176 | 1.0 | 6.0 | 0.00 | 0.00 | 0.00 | 50 | 1017.7 |
| 20260509104513 | 66 | 32 | 3.0 | 9.0 | 0.00 | 0.00 | 0.00 | 49 | 1017.8 |
| 20260509104501 | 66 | 44 | 3.0 | 9.0 | 0.00 | 0.00 | 0.00 | 49 | 1017.7 |
| 20260509104014 | 67 | 22 | 4.0 | 11.0 | 0.00 | 0.00 | 0.00 | 49 | 1017.8 |
| 20260509103949 | 67 | 19 | 4.0 | 11.0 | 0.00 | 0.00 | 0.00 | 49 | 1017.8 |
| 20260509103513 | 67 | 21 | 4.0 | 11.0 | 0.00 | 0.00 | 0.00 | 48 | 1017.9 |
| 20260509103446 | 67 | 9 | 4.0 | 11.0 | 0.00 | 0.00 | 0.00 | 48 | 1017.8 |
| 20260509103339 | 67 | 9 | 2.0 | 7.0 | 0.00 | 0.00 | 0.00 | 50 | 1017.8 |
| 20260509103315 | 67 | 119 | 1.0 | 4.0 | 0.00 | 0.00 | 0.00 | 51 | 1017.8 |
| 20260509103041 | 67 | 24 | 3.0 | 7.0 | 0.00 | 0.00 | 0.00 | 49 | 1017.8 |
| 20260509103014 | 67 | 21 | 3.0 | 7.0 | 0.00 | 0.00 | 0.00 | 49 | 1017.9 |
| 20260509102534 | 68 | 26 | 3.0 | 7.0 | 0.00 | 0.00 | 0.00 | 49 | 1017.9 |
| 20260509102035 | 67 | 104 | 1.0 | 4.0 | 0.00 | 0.00 | 0.00 | 51 | 1017.9 |
| 20260509101513 | 67 | 37 | 2.0 | 4.0 | 0.00 | 0.00 | 0.00 | 52 | 1017.8 |
| 20260509101445 | 67 | 127 | 2.0 | 4.0 | 0.00 | 0.00 | 0.00 | 51 | 1017.8 |
| 20260509101014 | 66 | 38 | 2.0 | 9.0 | 0.00 | 0.00 | 0.00 | 52 | 1017.8 |
| 20260509100943 | 66 | 16 | 2.0 | 9.0 | 0.00 | 0.00 | 0.00 | 53 | 1017.9 |
| 20260509100513 | 66 | 43 | 2.0 | 9.0 | 0.00 | 0.00 | 0.00 | 55 | 1017.9 |
| 20260509100440 | 66 | 17 | 2.0 | 9.0 | 0.00 | 0.00 | 0.00 | 54 | 1017.8 |
| 20260509100036 | 66 | 36 | 2.0 | 8.0 | 0.00 | 0.00 | 0.00 | 55 | 1018.0 |
| 20260509095937 | 65 | 161 | 2.0 | 8.0 | 0.00 | 0.00 | 0.00 | 55 | 1018.0 |
| 20260509095551 | 65 | 32 | 2.0 | 6.0 | 0.00 | 0.00 | 0.00 | 55 | 1017.9 |
| 20260509095513 | 65 | 42 | 2.0 | 8.0 | 0.00 | 0.00 | 0.00 | 55 | 1018.1 |
| 20260509095444 | 65 | 15 | 2.0 | 8.0 | 0.00 | 0.00 | 0.00 | 55 | 1018.0 |
| 20260509095014 | 65 | 101 | 2.0 | 6.0 | 0.00 | 0.00 | 0.00 | 54 | 1018.0 |
| 20260509094513 | 65 | 106 | 2.0 | 5.0 | 0.00 | 0.00 | 0.00 | 54 | 1018.1 |
| 20260509094438 | 65 | 157 | 2.0 | 5.0 | 0.00 | 0.00 | 0.00 | 55 | 1018.0 |
| 20260509094014 | 65 | 27 | 2.0 | 7.0 | 0.00 | 0.00 | 0.00 | 55 | 1018.2 |
| 20260509093936 | 65 | 58 | 3.0 | 7.0 | 0.00 | 0.00 | 0.00 | 54 | 1018.0 |
| 20260509093513 | 65 | 23 | 2.0 | 7.0 | 0.00 | 0.00 | 0.00 | 56 | 1018.1 |
| 20260509093429 | 65 | 24 | 2.0 | 7.0 | 0.00 | 0.00 | 0.00 | 57 | 1018.1 |
| 20260509093013 | 64 | 32 | 2.0 | 7.0 | 0.00 | 0.00 | 0.00 | 57 | 1018.2 |
| 20260509092952 | 65 | 41 | 2.0 | 7.0 | 0.00 | 0.00 | 0.00 | 58 | 1018.1 |
| 20260509092513 | 64 | 29 | 3.0 | 7.0 | 0.00 | 0.00 | 0.00 | 58 | 1018.2 |
| 20260509092430 | 64 | 57 | 3.0 | 7.0 | 0.00 | 0.00 | 0.00 | 58 | 1018.1 |
| 20260509092014 | 64 | 31 | 3.0 | 6.0 | 0.00 | 0.00 | 0.00 | 59 | 1018.2 |
| 20260509091952 | 64 | 9 | 3.0 | 6.0 | 0.00 | 0.00 | 0.00 | 59 | 1018.2 |
| 20260509091746 | 64 | 44 | 3.0 | 13.0 | 0.00 | 0.00 | 0.00 | 59 | 1018.1 |
| 20260509091725 | 64 | 9 | 2.0 | 13.0 | 0.00 | 0.00 | 0.00 | 59 | 1018.1 |
| 20260509091514 | 64 | 28 | 3.0 | 13.0 | 0.00 | 0.00 | 0.00 | 58 | 1018.2 |
| 20260509091035 | 64 | 26 | 3.0 | 13.0 | 0.00 | 0.00 | 0.00 | 59 | 1018.3 |
| 20260509090515 | 63 | 33 | 2.0 | 6.0 | 0.00 | 0.00 | 0.00 | 61 | 1018.2 |
| 20260509090431 | 63 | 5 | 2.0 | 6.0 | 0.00 | 0.00 | 0.00 | 61 | 1018.2 |
| 20260509090014 | 63 | 28 | 2.0 | 6.0 | 0.00 | 0.00 | 0.00 | 62 | 1018.2 |
| 20260509085931 | 63 | 15 | 2.0 | 6.0 | 0.00 | 0.00 | 0.00 | 62 | 1018.1 |
| 20260509085513 | 62 | 36 | 3.0 | 6.0 | 0.00 | 0.00 | 0.00 | 63 | 1018.1 |
| 20260509085427 | 62 | 112 | 3.0 | 6.0 | 0.00 | 0.00 | 0.00 | 64 | 1017.9 |
| 20260509085013 | 62 | 42 | 3.0 | 6.0 | 0.00 | 0.00 | 0.00 | 64 | 1018.1 |
| 20260509084924 | 62 | 21 | 3.0 | 6.0 | 0.00 | 0.00 | 0.00 | 65 | 1018.0 |
| 20260509084513 | 62 | 49 | 2.0 | 6.0 | 0.00 | 0.00 | 0.00 | 65 | 1018.1 |
| 20260509084420 | 62 | 35 | 2.0 | 6.0 | 0.00 | 0.00 | 0.00 | 65 | 1018.0 |
| 20260509084013 | 61 | 73 | 2.0 | 6.0 | 0.00 | 0.00 | 0.00 | 65 | 1018.1 |
| 20260509083923 | 61 | 36 | 2.0 | 6.0 | 0.00 | 0.00 | 0.00 | 65 | 1018.1 |
| 20260509083513 | 61 | 69 | 2.0 | 6.0 | 0.00 | 0.00 | 0.00 | 66 | 1018.1 |
| 20260509083421 | 61 | 82 | 2.0 | 6.0 | 0.00 | 0.00 | 0.00 | 66 | 1018.1 |
| 20260509083158 | 60 | 57 | 1.0 | 6.0 | 0.00 | 0.00 | 0.00 | 67 | 1018.1 |
| 20260509083013 | 60 | 60 | 1.0 | 6.0 | 0.00 | 0.00 | 0.00 | 67 | 1018.2 |
| 20260509082924 | 60 | 57 | 1.0 | 6.0 | 0.00 | 0.00 | 0.00 | 67 | 1018.1 |
| 20260509082513 | 60 | 88 | 1.0 | 7.0 | 0.00 | 0.00 | 0.00 | 68 | 1018.2 |
| 20260509082425 | 60 | 230 | 1.0 | 7.0 | 0.00 | 0.00 | 0.00 | 68 | 1018.2 |
| 20260509082014 | 60 | 112 | 2.0 | 8.0 | 0.00 | 0.00 | 0.00 | 69 | 1018.3 |
| 20260509081938 | 60 | 62 | 2.0 | 8.0 | 0.00 | 0.00 | 0.00 | 69 | 1018.2 |
| 20260509081514 | 58 | 84 | 2.0 | 8.0 | 0.00 | 0.00 | 0.00 | 74 | 1018.3 |
| 20260509081434 | 58 | 23 | 3.0 | 8.0 | 0.00 | 0.00 | 0.00 | 74 | 1018.2 |
| 20260509081014 | 58 | 37 | 2.0 | 7.0 | 0.00 | 0.00 | 0.00 | 75 | 1018.3 |
| 20260509080929 | 58 | 235 | 2.0 | 7.0 | 0.00 | 0.00 | 0.00 | 75 | 1018.2 |
| 20260509080639 | 57 | 126 | 2.0 | 8.0 | 0.00 | 0.00 | 0.00 | 77 | 1018.2 |
| 20260509080513 | 57 | 49 | 2.0 | 7.0 | 0.00 | 0.00 | 0.00 | 76 | 1018.3 |
| 20260509080510 | 57 | 355 | 2.0 | 5.0 | 0.00 | 0.00 | 0.00 | 76 | 1018.2 |
| 20260509080014 | 57 | 56 | 2.0 | 8.0 | 0.00 | 0.00 | 0.00 | 76 | 1018.3 |
| 20260509075643 | 56 | 61 | 1.0 | 6.0 | 0.00 | 0.00 | 0.00 | 79 | 1018.2 |
| 20260509075514 | 57 | 57 | 1.0 | 8.0 | 0.00 | 0.00 | 0.00 | 77 | 1018.2 |
| 20260509075424 | 56 | 40 | 1.0 | 8.0 | 0.00 | 0.00 | 0.00 | 78 | 1018.2 |
| 20260509075014 | 56 | 79 | 1.0 | 6.0 | 0.00 | 0.00 | 0.00 | 79 | 1018.3 |
| 20260509074513 | 56 | 99 | 2.0 | 5.0 | 0.00 | 0.00 | 0.00 | 80 | 1018.3 |
| 20260509074427 | 56 | 130 | 2.0 | 5.0 | 0.00 | 0.00 | 0.00 | 80 | 1018.2 |
| 20260509074014 | 55 | 93 | 2.0 | 8.0 | 0.00 | 0.00 | 0.00 | 81 | 1018.2 |
| 20260509073936 | 55 | 133 | 2.0 | 8.0 | 0.00 | 0.00 | 0.00 | 81 | 1018.2 |
| 20260509073513 | 55 | 64 | 2.0 | 8.0 | 0.00 | 0.00 | 0.00 | 82 | 1018.1 |
| 20260509073422 | 55 | 136 | 2.0 | 8.0 | 0.00 | 0.00 | 0.00 | 82 | 1018.0 |
| 20260509073155 | 53 | 115 | 1.0 | 5.0 | 0.00 | 0.00 | 0.00 | 85 | 1018.1 |
| 20260509073014 | 54 | 44 | 2.0 | 5.0 | 0.00 | 0.00 | 0.00 | 83 | 1018.2 |
| 20260509072958 | 54 | 13 | 2.0 | 8.0 | 0.00 | 0.00 | 0.00 | 83 | 1018.1 |
| 20260509072513 | 54 | 50 | 2.0 | 8.0 | 0.00 | 0.00 | 0.00 | 84 | 1018.2 |
| 20260509072437 | 53 | 112 | 1.0 | 5.0 | 0.00 | 0.00 | 0.00 | 85 | 1018.1 |
| 20260509072411 | 54 | 82 | 2.0 | 8.0 | 0.00 | 0.00 | 0.00 | 84 | 1018.1 |
| 20260509072353 | 53 | 197 | 1.0 | 5.0 | 0.00 | 0.00 | 0.00 | 86 | 1018.2 |
| 20260509072014 | 53 | 117 | 1.0 | 8.0 | 0.00 | 0.00 | 0.00 | 85 | 1018.2 |
| 20260509071535 | 53 | 129 | 1.0 | 5.0 | 0.00 | 0.00 | 0.00 | 85 | 1018.2 |
| 20260509071013 | 53 | 102 | 1.0 | 5.0 | 0.00 | 0.00 | 0.00 | 86 | 1018.2 |
| 20260509070513 | 52 | 35 | 2.0 | 4.0 | 0.00 | 0.00 | 0.00 | 86 | 1018.3 |
| 20260509070434 | 52 | 71 | 2.0 | 4.0 | 0.00 | 0.00 | 0.00 | 86 | 1018.2 |
| 20260509070128 | 52 | 24 | 2.0 | 4.0 | 0.00 | 0.00 | 0.00 | 86 | 1018.1 |
| 20260509070036 | 52 | 29 | 2.0 | 4.0 | 0.00 | 0.00 | 0.00 | 86 | 1018.2 |
| 20260509065513 | 52 | 49 | 1.0 | 4.0 | 0.00 | 0.00 | 0.00 | 87 | 1018.3 |
| 20260509065412 | 51 | 38 | 1.0 | 4.0 | 0.00 | 0.00 | 0.00 | 87 | 1018.3 |
| 20260509065013 | 51 | 69 | 1.0 | 3.0 | 0.00 | 0.00 | 0.00 | 87 | 1018.2 |
| 20260509064907 | 51 | 74 | 1.0 | 3.0 | 0.00 | 0.00 | 0.00 | 87 | 1018.2 |
| 20260509064513 | 51 | 82 | 1.0 | 4.0 | 0.00 | 0.00 | 0.00 | 87 | 1018.2 |
| 20260509064407 | 51 | 101 | 1.0 | 4.0 | 0.00 | 0.00 | 0.00 | 87 | 1018.1 |
| 20260509064015 | 50 | 78 | 1.0 | 6.0 | 0.00 | 0.00 | 0.00 | 87 | 1018.2 |
| 20260509063921 | 51 | 103 | 1.0 | 6.0 | 0.00 | 0.00 | 0.00 | 87 | 1018.2 |
| 20260509063627 | 50 | 91 | 1.0 | 6.0 | 0.00 | 0.00 | 0.00 | 88 | 1018.2 |
| 20260509063512 | 50 | 62 | 1.0 | 6.0 | 0.00 | 0.00 | 0.00 | 87 | 1018.2 |
| 20260509063406 | 50 | 91 | 1.0 | 6.0 | 0.00 | 0.00 | 0.00 | 88 | 1018.2 |
| 20260509063013 | 50 | 86 | 1.0 | 3.0 | 0.00 | 0.00 | 0.00 | 87 | 1018.3 |
| 20260509062915 | 50 | 17 | 1.0 | 3.0 | 0.00 | 0.00 | 0.00 | 87 | 1018.2 |
| 20260509062513 | 50 | 81 | 1.0 | 5.0 | 0.00 | 0.00 | 0.00 | 88 | 1018.2 |
| 20260509062405 | 50 | 119 | 1.0 | 5.0 | 0.00 | 0.00 | 0.00 | 88 | 1018.2 |
| 20260509062013 | 49 | 44 | 1.0 | 5.0 | 0.00 | 0.00 | 0.00 | 88 | 1018.3 |
| 20260509061856 | 49 | 80 | 1.0 | 5.0 | 0.00 | 0.00 | 0.00 | 87 | 1018.2 |
| 20260509061622 | 49 | 28 | 1.0 | 4.0 | 0.00 | 0.00 | 0.00 | 88 | 1018.2 |
| 20260509061513 | 49 | 37 | 1.0 | 4.0 | 0.00 | 0.00 | 0.00 | 88 | 1018.3 |
| 20260509061435 | 49 | 19 | 2.0 | 4.0 | 0.00 | 0.00 | 0.00 | 88 | 1018.3 |
| 20260509061013 | 49 | 39 | 1.0 | 3.0 | 0.00 | 0.00 | 0.00 | 88 | 1018.3 |
| 20260509060513 | 49 | 42 | 1.0 | 4.0 | 0.00 | 0.00 | 0.00 | 88 | 1018.4 |
| 20260509060349 | 49 | 32 | 1.0 | 4.0 | 0.00 | 0.00 | 0.00 | 88 | 1018.2 |
| 20260509060014 | 49 | 34 | 1.0 | 4.0 | 0.00 | 0.00 | 0.00 | 88 | 1018.3 |
| 20260509055846 | 49 | 70 | 1.0 | 4.0 | 0.00 | 0.00 | 0.00 | 88 | 1018.3 |
| 20260509055513 | 48 | 32 | 2.0 | 4.0 | 0.00 | 0.00 | 0.00 | 88 | 1018.3 |
| 20260509055346 | 48 | 21 | 2.0 | 4.0 | 0.00 | 0.00 | 0.00 | 88 | 1018.2 |
| 20260509055014 | 48 | 34 | 2.0 | 5.0 | 0.00 | 0.00 | 0.00 | 88 | 1018.1 |
| 20260509054847 | 48 | 24 | 2.0 | 5.0 | 0.00 | 0.00 | 0.00 | 88 | 1018.2 |
| 20260509054512 | 48 | 35 | 2.0 | 5.0 | 0.00 | 0.00 | 0.00 | 88 | 1018.1 |
| 20260509054342 | 48 | 11 | 2.0 | 5.0 | 0.00 | 0.00 | 0.00 | 88 | 1018.1 |
| 20260509054014 | 48 | 42 | 1.0 | 3.0 | 0.00 | 0.00 | 0.00 | 88 | 1018.2 |
| 20260509053847 | 48 | 20 | 1.0 | 3.0 | 0.00 | 0.00 | 0.00 | 87 | 1018.0 |
| 20260509053534 | 48 | 47 | 1.0 | 3.0 | 0.00 | 0.00 | 0.00 | 87 | 1018.2 |
| 20260509053345 | 48 | 44 | 1.0 | 3.0 | 0.00 | 0.00 | 0.00 | 87 | 1018.1 |
| 20260509053034 | 48 | 48 | 1.0 | 3.0 | 0.00 | 0.00 | 0.00 | 87 | 1018.1 |
| 20260509052835 | 48 | 52 | 1.0 | 3.0 | 0.00 | 0.00 | 0.00 | 87 | 1018.0 |
| 20260509052513 | 48 | 37 | 1.0 | 3.0 | 0.00 | 0.00 | 0.00 | 87 | 1018.1 |
| 20260509052338 | 48 | 29 | 1.0 | 3.0 | 0.00 | 0.00 | 0.00 | 87 | 1018.0 |
| 20260509052250 | 48 | 28 | 1.0 | 3.0 | 0.00 | 0.00 | 0.00 | 86 | 1017.9 |
| 20260509052015 | 48 | 28 | 2.0 | 4.0 | 0.00 | 0.00 | 0.00 | 87 | 1018.0 |
| 20260509051942 | 47 | 29 | 2.0 | 4.0 | 0.00 | 0.00 | 0.00 | 87 | 1017.9 |
| 20260509051539 | 48 | 81 | 1.0 | 2.0 | 0.00 | 0.00 | 0.00 | 86 | 1017.9 |
| 20260509051513 | 48 | 27 | 2.0 | 4.0 | 0.00 | 0.00 | 0.00 | 87 | 1018.0 |
| 20260509051412 | 48 | 29 | 2.0 | 4.0 | 0.00 | 0.00 | 0.00 | 87 | 1017.8 |
| 20260509051015 | 48 | 43 | 1.0 | 4.0 | 0.00 | 0.00 | 0.00 | 87 | 1018.0 |
| 20260509050513 | 48 | 91 | 1.0 | 3.0 | 0.00 | 0.00 | 0.00 | 86 | 1018.0 |
| 20260509050124 | 47 | 141 | 0.0 | 2.0 | 0.00 | 0.00 | 0.00 | 86 | 1017.9 |
| 20260509050013 | 48 | 141 | 0.0 | 2.0 | 0.00 | 0.00 | 0.00 | 86 | 1017.9 |
| 20260509045513 | 48 | 141 | 0.0 | 2.0 | 0.00 | 0.00 | 0.00 | 86 | 1017.9 |
| 20260509045355 | 47 | 141 | 0.0 | 1.0 | 0.00 | 0.00 | 0.00 | 86 | 1017.8 |
| 20260509045013 | 48 | 141 | 0.0 | 1.0 | 0.00 | 0.00 | 0.00 | 85 | 1017.7 |
| 20260509044852 | 47 | 141 | 0.0 | 1.0 | 0.00 | 0.00 | 0.00 | 85 | 1017.7 |
| 20260509044512 | 48 | 141 | 0.0 | 1.0 | 0.00 | 0.00 | 0.00 | 85 | 1017.7 |
| 20260509044438 | 48 | 141 | 0.0 | 1.0 | 0.00 | 0.00 | 0.00 | 85 | 1017.7 |
| 20260509044354 | 48 | 141 | 0.0 | 1.0 | 0.00 | 0.00 | 0.00 | 85 | 1017.7 |
| 20260509044015 | 48 | 0 | 0.0 | 1.0 | 0.00 | 0.00 | 0.00 | 85 | 1017.7 |
| 20260509043512 | 48 | 141 | 0.0 | 1.0 | 0.00 | 0.00 | 0.00 | 85 | 1017.7 |
| 20260509043435 | 48 | 141 | 0.0 | 2.0 | 0.00 | 0.00 | 0.00 | 85 | 1017.7 |
| 20260509043357 | 48 | 141 | 0.0 | 2.0 | 0.00 | 0.00 | 0.00 | 85 | 1017.7 |
| 20260509043014 | 48 | 141 | 0.0 | 2.0 | 0.00 | 0.00 | 0.00 | 85 | 1017.7 |
| 20260509042534 | 48 | 141 | 0.0 | 2.0 | 0.00 | 0.00 | 0.00 | 85 | 1017.7 |
| 20260509042329 | 48 | 141 | 0.0 | 1.0 | 0.00 | 0.00 | 0.00 | 85 | 1017.7 |
| 20260509042014 | 48 | 141 | 0.0 | 1.0 | 0.00 | 0.00 | 0.00 | 85 | 1017.7 |
| 20260509041826 | 48 | 141 | 0.0 | 1.0 | 0.00 | 0.00 | 0.00 | 85 | 1017.5 |
| 20260509041513 | 48 | 141 | 0.0 | 1.0 | 0.00 | 0.00 | 0.00 | 85 | 1017.6 |
| 20260509041439 | 48 | 141 | 0.0 | 2.0 | 0.00 | 0.00 | 0.00 | 85 | 1017.6 |
| 20260509041356 | 48 | 141 | 0.0 | 1.0 | 0.00 | 0.00 | 0.00 | 85 | 1017.6 |
| 20260509041014 | 48 | 141 | 0.0 | 2.0 | 0.00 | 0.00 | 0.00 | 85 | 1017.7 |
| 20260509040513 | 48 | 141 | 0.0 | 2.0 | 0.00 | 0.00 | 0.00 | 84 | 1017.7 |
| 20260509040324 | 48 | 141 | 0.0 | 2.0 | 0.00 | 0.00 | 0.00 | 85 | 1017.6 |
| 20260509040013 | 48 | 141 | 0.0 | 1.0 | 0.00 | 0.00 | 0.00 | 84 | 1017.6 |
| 20260509035817 | 48 | 141 | 0.0 | 1.0 | 0.00 | 0.00 | 0.00 | 84 | 1017.6 |
| 20260509035512 | 48 | 141 | 0.0 | 2.0 | 0.00 | 0.00 | 0.00 | 85 | 1017.6 |
| 20260509035313 | 48 | 141 | 0.0 | 2.0 | 0.00 | 0.00 | 0.00 | 85 | 1017.6 |
| 20260509035013 | 48 | 141 | 0.0 | 2.0 | 0.00 | 0.00 | 0.00 | 84 | 1017.6 |
| 20260509034927 | 48 | 141 | 0.0 | 1.0 | 0.00 | 0.00 | 0.00 | 84 | 1017.5 |
| 20260509034839 | 48 | 141 | 0.0 | 2.0 | 0.00 | 0.00 | 0.00 | 84 | 1017.5 |
| 20260509034513 | 48 | 141 | 0.0 | 2.0 | 0.00 | 0.00 | 0.00 | 84 | 1017.6 |
| 20260509034013 | 48 | 141 | 0.0 | 1.0 | 0.00 | 0.00 | 0.00 | 84 | 1017.5 |
| 20260509033817 | 48 | 141 | 0.0 | 1.0 | 0.00 | 0.00 | 0.00 | 84 | 1017.5 |
| 20260509033513 | 48 | 141 | 0.0 | 1.0 | 0.00 | 0.00 | 0.00 | 84 | 1017.5 |
| 20260509033321 | 49 | 141 | 0.0 | 1.0 | 0.00 | 0.00 | 0.00 | 84 | 1017.6 |
| 20260509033034 | 48 | 141 | 0.0 | 1.0 | 0.00 | 0.00 | 0.00 | 84 | 1017.6 |
| 20260509032810 | 49 | 141 | 0.0 | 2.0 | 0.00 | 0.00 | 0.00 | 84 | 1017.6 |
| 20260509032513 | 48 | 141 | 0.0 | 2.0 | 0.00 | 0.00 | 0.00 | 84 | 1017.6 |
| 20260509032311 | 49 | 141 | 0.0 | 2.0 | 0.00 | 0.00 | 0.00 | 84 | 1017.6 |
| 20260509032041 | 49 | 141 | 0.0 | 1.0 | 0.00 | 0.00 | 0.00 | 84 | 1017.7 |
| 20260509032013 | 48 | 142 | 0.0 | 2.0 | 0.00 | 0.00 | 0.00 | 84 | 1017.6 |
| 20260509031841 | 49 | 141 | 0.0 | 1.0 | 0.00 | 0.00 | 0.00 | 84 | 1017.7 |
| 20260509031514 | 48 | 145 | 0.0 | 1.0 | 0.00 | 0.00 | 0.00 | 84 | 1017.7 |
| 20260509031014 | 49 | 92 | 0.0 | 2.0 | 0.00 | 0.00 | 0.00 | 83 | 1017.8 |
| 20260509030808 | 49 | 92 | 0.0 | 2.0 | 0.00 | 0.00 | 0.00 | 83 | 1017.6 |
| 20260509030534 | 48 | 92 | 0.0 | 2.0 | 0.00 | 0.00 | 0.00 | 83 | 1017.7 |
| 20260509030316 | 49 | 92 | 0.0 | 2.0 | 0.00 | 0.00 | 0.00 | 83 | 1017.7 |
| 20260509030034 | 49 | 92 | 0.0 | 2.0 | 0.00 | 0.00 | 0.00 | 83 | 1017.8 |
| 20260509025809 | 49 | 92 | 0.0 | 2.0 | 0.00 | 0.00 | 0.00 | 83 | 1017.8 |
| 20260509025512 | 48 | 92 | 0.0 | 1.0 | 0.00 | 0.00 | 0.00 | 82 | 1017.8 |
| 20260509025250 | 49 | 92 | 0.0 | 1.0 | 0.00 | 0.00 | 0.00 | 82 | 1017.7 |
| 20260509025035 | 49 | 92 | 0.0 | 1.0 | 0.00 | 0.00 | 0.00 | 82 | 1017.8 |
| 20260509024754 | 49 | 92 | 0.0 | 1.0 | 0.00 | 0.00 | 0.00 | 82 | 1017.8 |
| 20260509024512 | 49 | 92 | 0.0 | 1.0 | 0.00 | 0.00 | 0.00 | 82 | 1017.7 |
| 20260509024242 | 49 | 92 | 0.0 | 1.0 | 0.00 | 0.00 | 0.00 | 82 | 1017.8 |
| 20260509024013 | 49 | 92 | 0.0 | 1.0 | 0.00 | 0.00 | 0.00 | 82 | 1017.8 |
| 20260509023741 | 49 | 92 | 0.0 | 1.0 | 0.00 | 0.00 | 0.00 | 82 | 1017.8 |
| 20260509023545 | 49 | 92 | 0.0 | 1.0 | 0.00 | 0.00 | 0.00 | 81 | 1017.7 |
| 20260509023514 | 49 | 92 | 0.0 | 1.0 | 0.00 | 0.00 | 0.00 | 82 | 1017.8 |
| 20260509023334 | 49 | 92 | 0.0 | 2.0 | 0.00 | 0.00 | 0.00 | 81 | 1017.7 |
| 20260509023013 | 49 | 99 | 0.0 | 2.0 | 0.00 | 0.00 | 0.00 | 81 | 1017.8 |
| 20260509022513 | 49 | 99 | 0.0 | 2.0 | 0.00 | 0.00 | 0.00 | 81 | 1017.7 |
| 20260509022324 | 49 | 79 | 0.0 | 0.0 | 0.00 | 0.00 | 0.00 | 80 | 1017.7 |
| 20260509022244 | 49 | 92 | 0.0 | 2.0 | 0.00 | 0.00 | 0.00 | 81 | 1017.7 |
| 20260509022034 | 49 | 79 | 0.0 | 1.0 | 0.00 | 0.00 | 0.00 | 81 | 1017.7 |
| 20260509021749 | 49 | 79 | 0.0 | 1.0 | 0.00 | 0.00 | 0.00 | 81 | 1017.7 |
| 20260509021514 | 49 | 0 | 0.0 | 0.0 | 0.00 | 0.00 | 0.00 | 81 | 1017.8 |
| 20260509021013 | 49 | 0 | 0.0 | 0.0 | 0.00 | 0.00 | 0.00 | 80 | 1017.8 |
| 20260509020745 | 49 | 79 | 0.0 | 0.0 | 0.00 | 0.00 | 0.00 | 80 | 1017.7 |
| 20260509020513 | 49 | 0 | 0.0 | 0.0 | 0.00 | 0.00 | 0.00 | 80 | 1017.7 |
| 20260509020236 | 49 | 79 | 0.0 | 0.0 | 0.00 | 0.00 | 0.00 | 80 | 1017.7 |
| 20260509020014 | 49 | 79 | 0.0 | 1.0 | 0.00 | 0.00 | 0.00 | 80 | 1017.7 |
| 20260509015942 | 50 | 79 | 0.0 | 1.0 | 0.00 | 0.00 | 0.00 | 80 | 1017.8 |
| 20260509015830 | 49 | 79 | 0.0 | 1.0 | 0.00 | 0.00 | 0.00 | 80 | 1017.8 |
| 20260509015513 | 50 | 79 | 0.0 | 1.0 | 0.00 | 0.00 | 0.00 | 80 | 1017.8 |
| 20260509015034 | 50 | 79 | 0.0 | 1.0 | 0.00 | 0.00 | 0.00 | 80 | 1017.8 |
| 20260509014727 | 50 | 79 | 0.0 | 1.0 | 0.00 | 0.00 | 0.00 | 80 | 1017.7 |
| 20260509014533 | 50 | 79 | 0.0 | 1.0 | 0.00 | 0.00 | 0.00 | 80 | 1017.8 |
| 20260509014231 | 50 | 79 | 0.0 | 1.0 | 0.00 | 0.00 | 0.00 | 80 | 1017.8 |
| 20260509014013 | 50 | 79 | 0.0 | 1.0 | 0.00 | 0.00 | 0.00 | 79 | 1017.8 |
| 20260509013733 | 50 | 79 | 0.0 | 1.0 | 0.00 | 0.00 | 0.00 | 79 | 1017.8 |
| 20260509013513 | 50 | 79 | 0.0 | 1.0 | 0.00 | 0.00 | 0.00 | 79 | 1017.8 |
| 20260509013230 | 50 | 79 | 0.0 | 1.0 | 0.00 | 0.00 | 0.00 | 79 | 1017.8 |
| 20260509013013 | 50 | 79 | 0.0 | 1.0 | 0.00 | 0.00 | 0.00 | 79 | 1017.9 |
| 20260509012726 | 50 | 79 | 0.0 | 1.0 | 0.00 | 0.00 | 0.00 | 79 | 1017.9 |
| 20260509012512 | 50 | 79 | 0.0 | 1.0 | 0.00 | 0.00 | 0.00 | 79 | 1018.1 |
| 20260509012224 | 50 | 79 | 0.0 | 0.0 | 0.00 | 0.00 | 0.00 | 79 | 1017.9 |
| 20260509012013 | 50 | 0 | 0.0 | 0.0 | 0.00 | 0.00 | 0.00 | 79 | 1018.1 |
| 20260509011718 | 50 | 79 | 0.0 | 0.0 | 0.00 | 0.00 | 0.00 | 79 | 1018.0 |
| 20260509011513 | 50 | 79 | 0.0 | 1.0 | 0.00 | 0.00 | 0.00 | 79 | 1018.1 |
| 20260509011214 | 51 | 79 | 0.0 | 1.0 | 0.00 | 0.00 | 0.00 | 79 | 1018.0 |
| 20260509011013 | 51 | 79 | 0.0 | 1.0 | 0.00 | 0.00 | 0.00 | 79 | 1018.1 |
| 20260509010844 | 51 | 79 | 0.0 | 1.0 | 0.00 | 0.00 | 0.00 | 78 | 1018.0 |
| 20260509010748 | 51 | 79 | 0.0 | 1.0 | 0.00 | 0.00 | 0.00 | 79 | 1018.0 |
| 20260509010513 | 51 | 79 | 0.0 | 1.0 | 0.00 | 0.00 | 0.00 | 78 | 1018.1 |
| 20260509010013 | 51 | 79 | 0.0 | 1.0 | 0.00 | 0.00 | 0.00 | 78 | 1018.0 |
| 20260509005707 | 51 | 79 | 0.0 | 1.0 | 0.00 | 0.00 | 0.00 | 78 | 1017.9 |
| 20260509005513 | 51 | 0 | 0.0 | 0.0 | 0.00 | 0.00 | 0.00 | 78 | 1018.1 |
| 20260509005210 | 51 | 79 | 0.0 | 0.0 | 0.00 | 0.00 | 0.00 | 78 | 1018.1 |
| 20260509005014 | 51 | 0 | 0.0 | 0.0 | 0.00 | 0.00 | 0.00 | 78 | 1018.2 |